Regional Weather Roundup
Issued by NWS

Home | Current Version | Previous Version | Graphics & Text | Print | Product List | Glossary On
Versions: 1 2 3 4 5 6 7 8 9 10 11 12 13 14 15 16 17 18 19 20 21 22 23 24 25 26 27 28 29 30 31 32 33 34 35 36 37 38 39 40 41 42 43 44 45 46 47 48 49 50
000
ASUS43 KMKX 171459
RWRWI

WISCONSIN REGIONAL WEATHER ROUNDUP
NATIONAL WEATHER SERVICE MILWAUKEE/SULLIVAN WI
900 AM CST SAT FEB 17 2018

NOTE: "FAIR" INDICATES FEW OR NO CLOUDS BELOW 12,000 FEET WITH NO
SIGNIFICANT WEATHER AND/OR OBSTRUCTIONS TO VISIBILITY.

WIZ001-002-006>008-014>016-023>028-171600-
NORTHWEST WISCONSIN

CITY           SKY/WX    TMP DP  RH WIND       PRES   REMARKS
SUPERIOR ARPT  FAIR      20  13  73 SW10G16   29.83R WCI   9
ASHLAND        FAIR      20  12  71 SW12      29.82S WCI   8
HAYWARD        FAIR      20  11  68 SW8       29.83S WCI  10
SIREN          PTSUNNY   23  15  71 SW12      29.85S WCI  12
CUMBERLAND     LGT SNOW  21  14  73 SW9       29.85R WCI  11
RICE LAKE      FLURRIES  20  15  78 S5        29.88S WCI  14
CHETEK         FLURRIES  20  12  70 SW3       29.87F
LADYSMITH      CLOUDY    17   9  70 S5        29.88S WCI  10
EAU CLAIRE     LGT SNOW  21  18  88 S8        29.90S VSB 3/4 WCI  11
MENOMONIE      LGT SNOW  23  19  86 S3        29.90S
NEW RICHMOND   LGT SNOW  24  17  74 SW9       29.87F WCI  14
OSCEOLA        LGT SNOW  23  17  77 S5        29.91R WCI  17
$$

WIZ003>005-009-010-017-018-171600-
NORTH CENTRAL WISCONSIN

CITY           SKY/WX    TMP DP  RH WIND       PRES   REMARKS
MANITOWISH WTR CLOUDY    15   8  73 SW9       29.80S WCI   4
ARBOR VITAE    CLOUDY    17   9  72 SW8       29.81F WCI   6
WOODRUFF       CLOUDY    17   9  72 SW8       29.81F WCI   6
RHINELANDER    CLOUDY    16   6  65 SW10      29.83F WCI   4
EAGLE RIVER    FAIR      15   5  64 SW15G21   29.80F WCI   0
LAND O LAKES   FLURRIES  15   7  69 SW8G16    29.81S WCI   5
PHILLIPS       CLOUDY    17   8  68 SW9       29.82F WCI   5
TOMAHAWK       CLOUDY    15   6  65 CALM      29.86S
MEDFORD        CLOUDY    16   9  72 SW12      29.87R HAZE    WCI   3
MERRILL        CLOUDY    17   6  63 SW7       29.89S WCI   7
$$

WIZ029-030-035-036-043>047-171600-
CENTRAL WISCONSIN

CITY           SKY/WX    TMP DP  RH WIND       PRES   REMARKS
WAUSAU         LGT SNOW  18   9  68 S5        29.89S WCI  11
MOSINEE        CLOUDY    19  10  68 SW17      29.90F WCI   4
MARSHFIELD     LGT SNOW  19  13  77 SW10      29.89S VSB 1   WCI   7
STEVENS POINT  CLOUDY    19   6  58 SW8       29.93F WCI   9
WAUPACA        FAIR      23   8  50 SW16      29.96F WCI  10
WAUTOMA        CLOUDY    21   9  59 SW6       29.97F WCI  13
WISC RAPIDS    LGT SNOW  21   8  57 SW10      29.94F WCI  10
CAMP DOUGLAS   NOT AVBL
$$

WIZ011>013-019>022-031-037>040-048>050-171600-
NORTHEAST WISCONSIN

CITY           SKY/WX    TMP DP  RH WIND       PRES   REMARKS
ANTIGO         FAIR      15   6  66 SW10      29.87F WCI   3
SHAWANO        FAIR      22   8  55 SW7       29.93F WCI  14
OCONTO         CLOUDY    20   7  56 SW9       29.96F WCI  10
STURGEON BAY   FAIR      24   8  50 SW13      29.95F WCI  12
GREEN BAY      FAIR      21   7  54 S12       29.96F WCI   9
MANITOWOC      FAIR      24   5  44 SW7       30.01F WCI  16
APPLETON       CLOUDY    19   7  58 SW14      29.95F WCI   6
CLINTONVILLE   CLOUDY    21   8  56 SW12      29.94F WCI  10
OSHKOSH        CLOUDY    21   8  57 SW15G24   29.98F WCI   8
$$

WIZ032>034-041-042-053>061-171600-
SOUTHWEST WISCONSIN

CITY           SKY/WX    TMP DP  RH WIND       PRES   REMARKS
LA CROSSE      CLOUDY    24  11  57 SE7       29.96F WCI  16
SPARTA         FAIR      24  10  56 S5        29.97F WCI  18
VIROQUA        FAIR      22  11  62 SW13      29.94F WCI  10
BOSCOBEL       CLOUDY    25  11  55 SW10      30.00F WCI  15
PRAIRIE DU CHI CLOUDY    24   9  53 CALM      29.99F
PLATTEVILLE    FAIR      19  12  74 S6        30.02S WCI  11
$$

WIZ056-057-062-063-064-067-068-171600-
SOUTH CENTRAL WISCONSIN

CITY           SKY/WX    TMP DP  RH WIND       PRES   REMARKS
REEDSBURG      PTSUNNY   23  10  57 W5        29.98S WCI  16
BARABOO/DELLS  FAIR      22   8  55 S12G17    29.97F WCI  10
LONE ROCK      NOT AVBL
MINERAL POINT  FAIR      23  12  63 S10       30.00S WCI  12
MADISON        CLOUDY    19   9  65 S10       30.02F WCI   7
MIDDLETON      PTSUNNY   22  10  60 SW6       30.02F WCI  15
WATERTOWN      FAIR      19   9  64 SW9       30.04S WCI   9
MONROE         FAIR      21  12  68 S12       30.01S WCI   9
JANESVILLE     CLOUDY    21   9  58 SW8       30.03F WCI  12
$$

WIZ051-052-058>065-066-070>072-171600-
SOUTHEAST WISCONSIN

CITY           SKY/WX    TMP DP  RH WIND       PRES   REMARKS
MILWAUKEE      CLOUDY    23   6  48 SW9       30.05F WCI  13
WAUKESHA       MOSUNNY   18   5  57 S10       30.05F WCI   6
MILWAUKEE/TIMM PTSUNNY   21   0  39 SW9       30.05F WCI  11
RACINE         FAIR      22   5  48 S14       30.06F WCI   9
BURLINGTON     FAIR      19   5  54 SW9       30.06S WCI   8
KENOSHA        FAIR      22   6  50 SW12      30.05F WCI  10
FOND DU LAC    FAIR      21   5  50 SW17G25   30.00S WCI   7
SHEBOYGAN      FAIR      22   8  55 S10       30.01F WCI  11
WEST BEND      FAIR      23   3  42 SW9       30.03S WCI  13
JUNEAU         FAIR      18   8  65 S12       30.04S WCI   6
$$

LSZ147-162-171600-
LAKE SUPERIOR

STATION/POSITION TIME  TEMP    WIND        PRES    WAVE
                       AIR SEA DIR/SP/G            HT/PER
                 (UTC) (F)     (DEG/KT/KT) (MB)    (FT/S)
DEVILS ISLAND    1400   20     230/ 16/ 20 1009.7R
SAXON HARBOR     1440   21     200/  9/ 13 1009.5S
$$

LMZ867-665-643>646-171600-
LAKE MICHIGAN

STATION/POSITION TIME  TEMP    WIND        PRES    WAVE
                       AIR SEA DIR/SP/G            HT/PER
                 (UTC) (F)     (DEG/KT/KT) (MB)    (FT/S)
NORTHPORT PIER   1440   23                 1013.5F
KEWAUNEE LAKESHO 1424   23     210/  9/ 13 1015.0
SHEBOYGAN LAKESH 1400   21     210/ 15/ 17 1018.1F
PORT WASHINGTON  1440   23     230/  5/  8 1018.6F
MILWAUKEE LAKESH 1430   22     200/ 10/ 12   N/A
KENOSHA   LAKESH 1400   19     200/  9/ 13 1019.0
$$

TC  - TEMPERATURE IN CELSIUS
VSB - VISIBILITY IN STATUTE MILES
WCI - WIND CHILL INDEX
HX  - HEAT INDEX





USA.gov is the U.S. government's official web portal to all federal, state and local government web resources and services.